Regional Weather Roundup
Issued by NWS Burlington, VT

Home | Current Version | Previous Version | Text Only | Print | Product List | Glossary On
Versions: 1 2 3 4 5 6 7 8 9 10 11 12 13 14 15 16 17 18 19 20 21 22 23 24 25 26 27 28 29 30 31 32 33 34 35 36 37 38 39 40 41 42 43 44 45 46 47 48 49 50
000
ASUS41 KBTV 260130
RWRBTV
VERMONT REGIONAL WEATHER ROUNDUP
NATIONAL WEATHER SERVICE BURLINGTON VT
800 PM EST TUE NOV 25 2014

NOTE: "FAIR" INDICATES FEW OR NO CLOUDS BELOW 12,000 FEET WITH NO
SIGNIFICANT WEATHER AND/OR OBSTRUCTIONS TO VISIBILITY.

* THESE REPORTS ARE NOT UNDER NWS QUALITY CONTROL AND/OR DO NOT
  REPORT WEATHER SUCH AS PRECIPITATION AND FOG.

VTZ001>019-260200-
_____VERMONT_____


CITY           SKY/WX    TMP DP  RH WIND       PRES   REMARKS
BURLINGTON     CLOUDY    46  25  43 SW8       30.01R
MONTPELIER     FAIR      41  23  48 W6        30.00R
ST. JOHNSBURY*   N/A     35  28  75 MISG      29.96R
LYNDONVILLE*   MOCLDY    38  22  52 SE6       29.97R
MIDDLEBURY*    FAIR      38  28  65 CALM      30.02R
RUTLAND*       FAIR      36  25  64 SE3       30.01R
SPRINGFIELD    FAIR      33  28  81 CALM      30.01R
HIGHGATE*      CLOUDY    42  30  64 W10G20    30.00R
NEWPORT*       CLOUDY    41  25  53 S7        29.96R
BENNINGTON     FAIR      35  26  69 SW3       30.02R
GALLUP MILLS*    N/A     34 N/A N/A MISG        N/A
UNION VILLAGE*   N/A     32 N/A N/A MISG        N/A

_____LAKE CHAMPLAIN_____


CITY           SKY/WX    TMP DP  RH WIND       PRES   REMARKS
BURTON ISLAND*   N/A     45  32  61 SW16G22     N/A
COLCHESTER RF*   N/A     45  32  61 NW17        N/A
DIAMOND ISL*     N/A     45  30  57 S6          N/A

$$

NYZ007-026>031-035-052-083-260200-
_____NORTHERN NEW YORK_____


CITY           SKY/WX    TMP DP  RH WIND       PRES   REMARKS
SARANAC LAKE   CLOUDY    34  29  82 W12G23    29.95R
MASSENA        CLOUDY    39  27  62 SW20G29   30.02R
OGDENSBURG*    CLOUDY    37  28  70 W12G17    30.03R
POTSDAM*       CLOUDY    37  30  75 W20G29    30.03R
STARK FALLS*     N/A     34 N/A N/A SW14        N/A
WATERTOWN      CLOUDY    39  27  62 W18G28    30.10R
FT DRUM        CLOUDY    36  32  87 W16G30    30.07R
ALBANY         MOCLDY    43  25  49 SW7       30.05R
GLENS FALLS    FAIR      30  25  81 CALM      30.03R

$$
NHZ002-005-011-260200-
_____NEW HAMPSHIRE_____


CITY           SKY/WX    TMP DP  RH WIND       PRES   REMARKS
LEBANON        FAIR      32  27  81 CALM      29.99R
KEENE          FAIR      37  28  70 CALM      30.03R
MT WASHINGTON  FOG       18  18 100 W69G75      N/A  VSB 1/16WCI  -9
PLYMOUTH       FAIR      33  31  92 CALM      30.00R
WHITEFIELD     FAIR      30  26  85 CALM      29.97R

$$

_____REGIONAL QUEBEC LOCATIONS_____


CITY           SKY/WX    TMP DP  RH WIND       PRES   REMARKS
MONTREAL       MOCLDY    41  28  60 SW24G37   29.95R
QUEBEC CITY    MOCLDY    39  32  75 SW23G36   29.84R
SHERBROOKE     CLOUDY    41  27  56 W15G28    29.91R

_____REGIONAL ONTARIO LOCATIONS_____


CITY           SKY/WX    TMP DP  RH WIND       PRES   REMARKS
OTTAWA         PTCLDY    36  25  64 SW17G23   29.97R

______KEY______
VSB  - VISIBILITY IN MILES
WCI  - WIND CHILL INDEX
HX   - HEAT INDEX
$$
NNNN



USA.gov is the U.S. government's official web portal to all federal, state and local government web resources and services.